Location: Newark
(42.8481°N, 0.4872°E)
Time: 18:48:03
(UTC+00:00)

Vanguard 2 - Pass Details

Date: 29 October 2020
Orbit: 554 x 2937 km, 32.9° (Epoch: 24 November)

Event Time Altitude Azimuth Distance (km) Brightness Sun altitude
Rises 22:32:28 0° 268° (W) 6,020 12.3 -57.4°
Reaches altitude 10° 22:36:11 10° 264° (W) 5,243 11.8 -57.7°
Enters shadow 22:41:13 26° 256° (WSW) 4,305 11.2 -58.2°
Maximum altitude 22:52:02 56° 193° (SSW) 3,315 - -59.1°
Drops below altitude 10° 23:08:33 10° 121° (ESE) 5,426 - -60.1°
Sets 23:12:28 0° 118° (ESE) 6,232 - -60.3°
